Hourly Data Report for September 22, 2017

All times are specified in Local Standard Time (LST). Add 1 hour to adjust for Daylight Saving Time where and when it is observed.

SATURNA ISLAND CS
BRITISH COLUMBIA

48°47'02.067" N
123°02'41.082" W
24.40 m
1017101
71473
WEZ

Download Data

Hourly Data (September 2017)
Hourly Data Report for September 22, 2017
Temp Definition
°C
Dew Point Temp Definition
°C
Rel Hum Definition
%
Wind Dir Definition
10's deg

Wind Spd Definition
km/h
Visibility Definition
km
Stn Press Definition
kPa
Hmdx Definition


Wind Chill Definition


Weather Definition


TIME
00:00 13.0 8.8 75 31 5   101.29     LegendNANA
01:00 12.8 9.4 80 27 2   101.30     LegendNANA
02:00 12.4 9.6 83 28 2   101.31     LegendNANA
03:00 13.1 10.9 87 33 3   101.34     LegendNANA
04:00 13.0 11.1 88 35 7   101.37     LegendNANA
05:00 12.9 11.1 89 32 4   101.40     LegendNANA
06:00 12.5 10.6 88 31 2   101.44     LegendNANA
07:00 13.1 11.2 88 33 2   101.47     LegendNANA
08:00 13.9 10.3 79 30 4   101.48     LegendNANA
09:00 15.2 10.8 75 27 4   101.49     LegendNANA
10:00 15.6 9.2 66 27 4   101.46     LegendNANA
11:00 16.4 10.3 67 29 4   101.44     LegendNANA
12:00 17.3 9.6 61 29 4   101.44     LegendNANA
13:00 16.3 10.5 69 28 3   101.40     LegendNANA
14:00 15.9 9.4 65 31 5   101.37     LegendNANA
15:00 15.8 9.1 65 31 5   101.34     LegendNANA
16:00 15.5 8.6 64 30 5   101.32     LegendNANA
17:00 15.4 9.1 66 0 1   101.31     LegendNANA
18:00 12.7 9.3 80 19 9   101.30     LegendNANA
19:00 12.4 10.1 86 14 13   101.30     LegendNANA
20:00 12.3 9.8 85 20 6   101.29     LegendNANA
21:00 11.9 9.2 83 20 8   101.28     LegendNANA
22:00 13.1 8.9 76 23 9   101.28     LegendNANA
23:00 13.1 8.2 73 24 10   101.29     LegendNANA

Notes on Data Quality.

Legend

  • E = Estimated
  • M = Missing
  • NA = Not Available
  • ‡ = Partner data that is not subject to review by the National Climate Archives
Date modified: